Weather History for Orange, MA

Change the Weather History Date:

Wednesday, April 17, 2013

  Actual Average Record
Temperature  
Mean Temperature 52 °F -  
Max Temperature 64 °F 57 °F 91 °F (2002)
Min Temperature 37 °F 31 °F 21 °F (2014)
Degree Days  
Heating Degree Days 14    
Growing Degree Days 2 (Base 50)    
Moisture  
Dew Point 35 °F    
Average Humidity 57    
Maximum Humidity 96    
Minimum Humidity 22    
Precipitation  
Precipitation 0.01 in - - ()
Sea Level Pressure  
Sea Level Pressure 30.20 in    
Wind  
Wind Speed 7 mph (NW)    
Max Wind Speed 17 mph    
Max Gust Speed 23 mph    
Visibility 10 miles    
Events Rain    
Averages and records for this station are not official NWS values.
T = Trace of Precipitation, MM = Missing Value Source: NWS Daily Summary

Daily Weather History Graph

Daily Weather History Graph

Search for Another Location

Airport:

Trip Planner

Search our weather history database for the weather conditions in past years. The results will help you decide how hot, cold, wet, or windy it might be!

Date:

Astronomy

Apr. 17, 2013 Rise Set
Actual Time 6:04 AM EDT 7:33 PM EDT
Civil Twilight 5:34 AM EDT 8:03 PM EDT
Nautical Twilight 4:59 AM EDT 8:38 PM EDT
Astronomical Twilight 4:21 AM EDT 9:16 PM EDT
Moon 11:13 AM EDT (4/17) 1:12 AM EDT (4/17)
Length of Visible Light 14h 28m
Length of Day
13h 29m
Waxing Crescent, 42% of the Moon is Illuminated
Apr 17
Waxing Crescent
Apr 18
First Quarter
Apr 25
Full
May 2
Last Quarter
May 9
New

Hourly Weather History & Observations

Time (EDT) Temp. Dew Point Humidity Pressure Visibility Wind Dir Wind Speed Gust Speed Precip Events Conditions
12:30 AM 53.6 °F 51.8 °F 94% 30.08 in 4.0 mi SSW 6.9 mph - 0.00 in Rain Light Rain
12:52 AM 53.1 °F 52.0 °F 96% 30.10 in 10.0 mi South 3.5 mph - 0.00 in   Overcast
1:33 AM 53.6 °F 50.0 °F 88% 30.09 in 10.0 mi West 4.6 mph - 0.01 in   Overcast
1:38 AM 53.6 °F 50.0 °F 88% 30.11 in 10.0 mi West 8.1 mph - 0.01 in   Overcast
1:52 AM 53.1 °F 50.0 °F 89% 30.11 in 10.0 mi West 5.8 mph - 0.01 in   Overcast
2:52 AM 50.0 °F 39.9 °F 68% 30.12 in 10.0 mi Variable 5.8 mph - 0.00 in   Overcast
3:52 AM 48.9 °F 41.0 °F 74% 30.13 in 10.0 mi West 5.8 mph - N/A   Overcast
4:52 AM 48.9 °F 41.0 °F 74% 30.13 in 10.0 mi WNW 8.1 mph - N/A   Overcast
5:52 AM 46.9 °F 39.9 °F 77% 30.15 in 10.0 mi NNW 4.6 mph - N/A   Clear
6:52 AM 46.9 °F 39.9 °F 77% 30.17 in 10.0 mi Calm Calm - N/A   Clear
7:52 AM 48.9 °F 37.0 °F 64% 30.20 in 10.0 mi NNW 13.8 mph - N/A   Clear
8:52 AM 50.0 °F 30.9 °F 48% 30.21 in 10.0 mi NNW 12.7 mph 23.0 mph N/A   Clear
9:52 AM 53.1 °F 30.0 °F 41% 30.22 in 10.0 mi NNW 10.4 mph - N/A   Clear
10:52 AM 55.9 °F 28.9 °F 36% 30.22 in 10.0 mi NW 12.7 mph 23.0 mph N/A   Clear
11:52 AM 57.9 °F 27.0 °F 31% 30.21 in 10.0 mi NW 12.7 mph 20.7 mph N/A   Clear
12:52 PM 61.0 °F 27.0 °F 27% 30.20 in 10.0 mi WNW 13.8 mph 23.0 mph N/A   Clear
1:52 PM 62.1 °F 26.1 °F 25% 30.19 in 10.0 mi NNW 10.4 mph 20.7 mph N/A   Clear
2:52 PM 64.0 °F 26.1 °F 24% 30.20 in 10.0 mi North 17.3 mph 21.9 mph N/A   Clear
3:52 PM 63.0 °F 25.0 °F 24% 30.21 in 10.0 mi North 9.2 mph 21.9 mph N/A   Clear
5:52 PM 61.0 °F 21.9 °F 22% 30.25 in 10.0 mi NNW 12.7 mph - N/A   Clear
6:52 PM 60.1 °F 24.1 °F 25% 30.27 in 10.0 mi NNW 10.4 mph - N/A   Clear
7:52 PM 54.0 °F 27.0 °F 35% 30.29 in 10.0 mi NNW 5.8 mph - N/A   Clear
8:52 PM 48.0 °F 28.9 °F 48% 30.30 in 10.0 mi Calm Calm - N/A   Clear
9:52 PM 43.0 °F 30.9 °F 62% 30.33 in 10.0 mi Calm Calm - N/A   Clear
10:52 PM 39.0 °F 30.0 °F 70% 30.32 in 10.0 mi Calm Calm - N/A   Clear
11:52 PM 37.0 °F 30.9 °F 79% 30.35 in 10.0 mi Calm Calm - N/A   Clear